Карточка аэропорта USHH

Внимание!
Информация на этой странице в стадии наполнения.
Если вы не увидели какой-то информации, или заметили неточность - пожалуйста сообщите нам!
Спасибо!
Команда RU-STAFF
Название аэропортаХанты-Мансийск
Название аэропорта (англ.)Khanty-Mansiysk
Превышение141 ft. (43 m.)
Координаты61°1.7039999999999', 69°5.1599999999999'
Высота перехода3000ft
Эшелон переходаQNH>=1013hPa:FL040; QNH>=977hPa:FL050; QNH<=977hPa:FL060
Коды ответчика5150-5177
Зона ОрВДТюмень РПИ (USTV)
Данные METARUSHH 181600Z 02003MPS 330V040 9999 SCT031 01/M02 Q1010 R06/290050 NOSIG
Проноз погоды (TAF)USHH 181343Z 1815/1915 36003G09MPS 6000 FEW005 BKN016 TEMPO 1815/1818 5000 -SHSNRA SCT002 BKN016CB TEMPO 1818/1905 0300 FZFG VV002 BECMG 1903/1905 06005G13MPS
NOTAMshow/hide NOTAM
AWOS   TABLE

Информация о ВПП

ВПП Длина ВПП (м.) Покрытие Курс ВПП Частота ILS
062800Асфальтобетон58111.9
242800Асфальтобетон238110.1

Диспетчерские позиции

Позывной Наименование органа УВД Частота
USHH_TWRХантым-Вышка118.1
USHH_R_APPХантым-Круг120.4



Спутниковое изображение